Zurück zum Katalog

FENGYUN 1C DEB

AktivPO
NORAD 29832·DEBRIS·🇨🇳 China

Gestartet May 10, 1999 von Taiyuan Satellite Launch Center

Loading…

Nächste Überflüge (nächste 24 Stunden)

TLE

AktuellSource: Space-Track

Epoche: Sep 14, 2026, 14:50 UTC

1 29832U 99025EA  26257.61806517  .00000825  00000-0  15329-3 0  9993
2 29832  98.8505  30.6167 0192325 161.4578 199.3755 14.57047222 42726

Verfolge FENGYUN 1C DEB in Echtzeit mit AllMySat

Download on the App Store